Location: Rometta
(44.2000°N, 10.0500°E)
Time: 12:24:10
(UTC+00:00)

Cosmos 1898 Rocket - Pass Details

Date: 20 January 2021
Orbit: 754 x 783 km, 74.0° (Epoch: 07 March)

Event Time Altitude Azimuth Distance (km) Brightness Sun altitude
Rises 18:16:06 0° 187° (S) 3,241 6.9 -21.7°
Reaches altitude 10° 18:18:30 10° 183° (S) 2,314 6.1 -22.1°
Maximum altitude 18:23:38 57° 106° (ESE) 909 3.5 -23.0°
Enters shadow 18:23:39 57° 105° (ESE) 909 3.5 -23.0°
